Météo par heure à Kysorychi

Ce jour, 25 Juillet, Dimanche

Heure Température Précipitation Vent Pression Humidité
00:00 +21°C° 0 mm 1 m/s 746 mmHg 65%
01:00 +20°C° 0 mm 1 m/s 746 mmHg 66%
02:00 +20°C° 0 mm 1 m/s 746 mmHg 66%
03:00 +20°C° 0 mm 1 m/s 746 mmHg 67%
04:00 +20°C° 0 mm 1 m/s 746 mmHg 67%
05:00 +20°C° 0 mm 1 m/s 746 mmHg 67%
06:00 +21°C° 0 mm 1 m/s 746 mmHg 66%
07:00 +22°C° 0 mm 1 m/s 747 mmHg 64%
08:00 +23°C° 0 mm 1 m/s 747 mmHg 62%
09:00 +24°C° 0 mm 1 m/s 747 mmHg 58%
10:00 +25°C° 0 mm 1 m/s 747 mmHg 53%
11:00 +27°C° 0 mm 1 m/s 747 mmHg 48%
12:00 +27°C° 0 mm 1 m/s 747 mmHg 48%
13:00 +27°C° 0 mm 2 m/s 747 mmHg 47%
14:00 +27°C° 0 mm 2 m/s 747 mmHg 46%
15:00 +27°C° 0 mm 2 m/s 747 mmHg 48%
16:00 +26°C° 0 mm 2 m/s 747 mmHg 50%
17:00 +26°C° 0 mm 2 m/s 747 mmHg 52%
18:00 +25°C° 0 mm 2 m/s 747 mmHg 57%
19:00 +23°C° 0 mm 2 m/s 747 mmHg 62%
20:00 +21°C° 0 mm 2 m/s 747 mmHg 67%
21:00 +20°C° 0 mm 2 m/s 747 mmHg 69%
22:00 +19°C° 0 mm 2 m/s 747 mmHg 72%
23:00 +19°C° 0 mm 2 m/s 747 mmHg 74%

Demain, 26 Juillet, Lundi

Heure Température Précipitation Vent Pression Humidité
00:00 +18°C° 0 mm 2 m/s 747 mmHg 75%
01:00 +18°C° 0 mm 2 m/s 747 mmHg 75%
02:00 +18°C° 0 mm 2 m/s 747 mmHg 75%
03:00 +18°C° 0 mm 2 m/s 747 mmHg 76%
04:00 +17°C° 0 mm 2 m/s 747 mmHg 78%
05:00 +17°C° 0 mm 2 m/s 747 mmHg 79%
06:00 +19°C° 0 mm 3 m/s 748 mmHg 71%
07:00 +21°C° 0 mm 3 m/s 748 mmHg 62%
08:00 +24°C° 0 mm 3 m/s 748 mmHg 54%
09:00 +26°C° 0 mm 4 m/s 748 mmHg 49%
10:00 +28°C° 0 mm 4 m/s 748 mmHg 44%
11:00 +29°C° 0 mm 4 m/s 748 mmHg 38%
12:00 +29°C° 0 mm 4 m/s 748 mmHg 39%
13:00 +30°C° 0 mm 4 m/s 747 mmHg 39%
14:00 +30°C° 0 mm 4 m/s 747 mmHg 39%
15:00 +29°C° 0 mm 4 m/s 747 mmHg 42%
16:00 +29°C° 0 mm 4 m/s 747 mmHg 45%
17:00 +28°C° 0 mm 3 m/s 747 mmHg 48%
18:00 +27°C° 0 mm 3 m/s 747 mmHg 53%
19:00 +26°C° 0 mm 3 m/s 747 mmHg 57%
20:00 +25°C° 0 mm 3 m/s 747 mmHg 62%
21:00 +24°C° 0 mm 3 m/s 747 mmHg 62%
22:00 +24°C° 0 mm 3 m/s 747 mmHg 63%
23:00 +23°C° 0 mm 4 m/s 747 mmHg 63%

Après-demain, 27 Juillet, Mardi

Heure Température Précipitation Vent Pression Humidité
00:00 +22°C° 0 mm 4 m/s 747 mmHg 66%
01:00 +21°C° 0 mm 4 m/s 747 mmHg 69%
02:00 +21°C° 0 mm 4 m/s 746 mmHg 72%
03:00 +20°C° 0 mm 4 m/s 746 mmHg 71%
04:00 +20°C° 0 mm 4 m/s 746 mmHg 71%
05:00 +20°C° 0 mm 4 m/s 746 mmHg 70%
06:00 +21°C° 0 mm 4 m/s 746 mmHg 65%
07:00 +23°C° 0 mm 4 m/s 746 mmHg 59%
08:00 +26°C° 0 mm 5 m/s 746 mmHg 53%
09:00 +28°C° 0.1 mm 5 m/s 746 mmHg 50%
10:00 +29°C° 0.1 mm 5 m/s 745 mmHg 46%
11:00 +32°C° 0.1 mm 5 m/s 745 mmHg 43%
12:00 +33°C° 0 mm 5 m/s 745 mmHg 41%
13:00 +34°C° 0 mm 5 m/s 745 mmHg 38%
14:00 +35°C° 0 mm 5 m/s 744 mmHg 36%
15:00 +34°C° 0 mm 5 m/s 744 mmHg 39%
16:00 +34°C° 0 mm 5 m/s 744 mmHg 43%
17:00 +33°C° 0 mm 5 m/s 743 mmHg 46%
18:00 +30°C° 0.6 mm 5 m/s 743 mmHg 57%
19:00 +27°C° 0.6 mm 5 m/s 743 mmHg 67%
20:00 +25°C° 0.6 mm 4 m/s 743 mmHg 78%
21:00 +23°C° 0.8 mm 4 m/s 743 mmHg 83%
22:00 +22°C° 0.8 mm 3 m/s 744 mmHg 88%
23:00 +21°C° 0.8 mm 3 m/s 744 mmHg 93%

28 Juillet, Mercredi

Heure Température Précipitation Vent Pression Humidité
00:00 +21°C° 0.6 mm 2 m/s 744 mmHg 95%
01:00 +20°C° 0.6 mm 2 m/s 744 mmHg 96%
02:00 +20°C° 0.6 mm 2 m/s 744 mmHg 97%
03:00 +19°C° 0 mm 2 m/s 744 mmHg 97%
04:00 +19°C° 0 mm 2 m/s 744 mmHg 97%
05:00 +19°C° 0 mm 2 m/s 744 mmHg 97%
06:00 +20°C° 0 mm 2 m/s 744 mmHg 91%
07:00 +21°C° 0 mm 2 m/s 745 mmHg 85%
08:00 +23°C° 0 mm 2 m/s 745 mmHg 80%
09:00 +25°C° 0 mm 2 m/s 745 mmHg 69%
10:00 +27°C° 0 mm 2 m/s 745 mmHg 59%
11:00 +29°C° 0 mm 2 m/s 745 mmHg 49%
12:00 +30°C° 0 mm 2 m/s 745 mmHg 45%
13:00 +31°C° 0 mm 2 m/s 745 mmHg 42%
14:00 +31°C° 0 mm 2 m/s 744 mmHg 38%
15:00 +31°C° 0 mm 2 m/s 744 mmHg 39%
16:00 +31°C° 0 mm 2 m/s 744 mmHg 40%
17:00 +31°C° 0 mm 2 m/s 744 mmHg 42%
18:00 +29°C° 0 mm 2 m/s 744 mmHg 48%
19:00 +27°C° 0 mm 1 m/s 744 mmHg 54%
20:00 +25°C° 0 mm 1 m/s 744 mmHg 61%
21:00 +24°C° 0 mm 1 m/s 744 mmHg 63%
22:00 +24°C° 0 mm 1 m/s 744 mmHg 66%
23:00 +23°C° 0 mm 1 m/s 744 mmHg 69%

29 Juillet, Jeudi

Heure Température Précipitation Vent Pression Humidité
00:00 +22°C° 0 mm 1 m/s 744 mmHg 70%
01:00 +22°C° 0 mm 1 m/s 744 mmHg 71%
02:00 +22°C° 0 mm 1 m/s 743 mmHg 72%
03:00 +21°C° 0 mm 1 m/s 743 mmHg 75%
04:00 +21°C° 0 mm 1 m/s 743 mmHg 78%
05:00 +21°C° 0 mm 1 m/s 743 mmHg 81%
06:00 +23°C° 0 mm 1 m/s 743 mmHg 74%
07:00 +25°C° 0 mm 1 m/s 743 mmHg 68%
08:00 +27°C° 0 mm 1 m/s 743 mmHg 62%
09:00 +28°C° 0 mm 1 m/s 743 mmHg 57%
10:00 +30°C° 0 mm 1 m/s 743 mmHg 52%
11:00 +32°C° 0 mm 1 m/s 743 mmHg 46%
12:00 +32°C° 0 mm 2 m/s 743 mmHg 44%
13:00 +34°C° 0 mm 2 m/s 743 mmHg 42%
14:00 +35°C° 0 mm 2 m/s 743 mmHg 40%
15:00 +34°C° 0 mm 2 m/s 743 mmHg 42%
16:00 +32°C° 0 mm 2 m/s 742 mmHg 45%
17:00 +32°C° 0 mm 2 m/s 742 mmHg 47%
18:00 +30°C° 0 mm 2 m/s 742 mmHg 52%
19:00 +29°C° 0 mm 2 m/s 743 mmHg 58%
20:00 +27°C° 0 mm 1 m/s 743 mmHg 63%
21:00 +26°C° 0 mm 1 m/s 743 mmHg 66%
22:00 +25°C° 0 mm 1 m/s 743 mmHg 70%
23:00 +24°C° 0 mm 1 m/s 743 mmHg 73%

30 Juillet, Vendredi

Heure Température Précipitation Vent Pression Humidité
00:00 +24°C° 0 mm 2 m/s 743 mmHg 77%
01:00 +23°C° 0 mm 2 m/s 743 mmHg 82%
02:00 +21°C° 0 mm 2 m/s 743 mmHg 86%
03:00 +21°C° 0 mm 2 m/s 743 mmHg 87%
04:00 +20°C° 0 mm 2 m/s 743 mmHg 89%
05:00 +20°C° 0 mm 2 m/s 744 mmHg 91%
06:00 +23°C° 0 mm 2 m/s 744 mmHg 82%
07:00 +25°C° 0 mm 2 m/s 744 mmHg 73%
08:00 +27°C° 0 mm 2 m/s 744 mmHg 64%
09:00 +28°C° 0 mm 2 m/s 744 mmHg 56%
10:00 +30°C° 0 mm 2 m/s 744 mmHg 48%
11:00 +31°C° 0 mm 2 m/s 744 mmHg 40%
12:00 +32°C° 0 mm 2 m/s 744 mmHg 38%
13:00 +33°C° 0 mm 1 m/s 743 mmHg 35%
14:00 +34°C° 0 mm 1 m/s 743 mmHg 33%
15:00 +34°C° 0 mm 1 m/s 743 mmHg 34%
16:00 +31°C° 0 mm 0 m/s 743 mmHg 34%
17:00 +31°C° 0 mm 0 m/s 742 mmHg 34%
18:00 +31°C° 0 mm 1 m/s 742 mmHg 41%
19:00 +29°C° 0 mm 1 m/s 742 mmHg 49%
20:00 +27°C° 0 mm 1 m/s 742 mmHg 56%
21:00 +26°C° 0 mm 2 m/s 742 mmHg 60%
22:00 +25°C° 0 mm 2 m/s 742 mmHg 64%
23:00 +24°C° 0 mm 2 m/s 741 mmHg 68%
Voir plus

Nous avons besoin de votre consentement

Meteoprog et ses fournisseurs de services peuvent stocker et accéder à des données personnelles telles que des cookies, des identifiants d'appareils ou d'autres technologies similaires sur votre appareil et traiter ces données pour personnaliser le contenu et les publicités, ainsi que pour fournir des fonctionnalités de médias sociaux et analyser le trafic.

  • Stocker et/ou accéder à des informations sur votre appareil

    Des cookies, des identifiants d'appareils ou d'autres informations peuvent être stockés ou accessibles sur votre appareil aux fins indiquées ci-dessus.

  • Annonces et contenus personnalisés, mesure des annonces et des contenus, connaissance de l'audience et développement de produits

    Les annonces et le contenu peuvent être personnalisés en fonction d'un profil. D'autres données peuvent être ajoutées pour mieux personnaliser les annonces et le contenu. Les performances des publicités et du contenu peuvent être mesurées. Il est possible d'obtenir des informations sur le public qui a vu les publicités et le contenu. Ces données peuvent être utilisées pour développer ou améliorer l'expérience de l'utilisateur, les systèmes et les logiciels.

En cliquant sur "J'accepte", vous autorisez l'utilisation de cookies, des identifiants d'appareils, des balises web ou d'autres technologies similaires. Vos paramètres peuvent être modifiés dans le navigateur de votre appareil.

Dans certains cas, des intérêts légitimes peuvent être invoqués plutôt qu'un consentement. Vous pouvez en savoir plus à ce sujet dans notre Politique de confidentialité et de cookies.